#timestamp,LO_Frequency,Hit,StdDev 
1678716015.4,286046999.0,N
1678716035.2,286046999.5,N
1678716055.1,286046998.7,N
1678716056.0,286046998.7,N
1678716075.8,286046999.2,N
1678716095.6,286046996.8,Y
1678716115.5,286046998.8,P
1678716135.3,286046998.4,P
1678716155.1,286046999.4,P
1678716175.9,286046999.6,N
1678716195.7,286046996.6,Y
1678716215.5,286046999.4,P
1678716235.4,286046999.4,N
1678716255.2,286046999.0,P
1678716275.0,286046999.3,Y
1678716275.9,286046999.3,P
1678716295.8,286046998.9,P
1678716315.6,286046996.6,P
1678716335.4,286046996.8,N
1678716355.3,286046999.6,N
1678716375.1,286046999.6,N
1678716395.8,286046998.4,N
1678716415.7,286046999.0,N
1678716435.5,286046996.5,Y
1678716455.3,286046998.5,P
1678716475.2,286046999.1,P
1678716495.0,286046998.7,P
1678716495.9,286046998.7,Y
1678716515.7,286047000.1,P
1678716535.6,286047000.9,N
1678716555.4,286047000.7,N
1678716575.2,286047000.8,N
1678716595.1,286047000.9,N
1678716596.0,286047000.9,N
1678716615.8,286047000.9,N
1678716635.6,286047001.0,N
1678716655.5,286046998.4,N
1678716675.3,286047000.8,N
1678716695.1,286047000.9,N
1678716715.9,286047000.9,N
1678716735.7,286047000.6,N
1678716755.5,286047000.4,N
1678716775.4,286047000.9,N
1678716795.2,286047002.7,Y
1678716815.0,286047001.0,P
1678716816.0,286047001.0,P
1678716835.8,286047001.0,P
1678716855.6,286047000.2,N
1678716875.5,286047000.0,N
1678716895.3,286047002.7,Y
1678716915.1,286047000.1,P
1678716935.9,286047000.4,N
1678716955.7,286046998.9,P
1678716975.5,286046999.3,N
1678716995.3,286046998.8,N
1678717015.2,286046999.2,N
1678717035.0,286046996.6,Y
1678717035.9,286046996.6,P
1678717055.8,286046999.1,N
1678717075.6,286046999.4,N
1678717095.4,286046999.6,N
1678717115.3,286046996.8,N
1678717135.1,286046997.0,N
1678717136.0,286046997.0,N
1678717155.8,286046997.8,N
1678717175.7,286046996.5,N
1678717195.5,286046998.7,N
1678717215.3,286046999.0,N
1678717235.1,286046999.4,N
1678717255.9,286046996.6,N
1678717275.7,286046997.1,N
1678717295.5,286046996.6,N
1678717315.4,286046996.6,N
1678717365.2,286046996.6,E
1678717375.2,286046998.4,N
1678717395.9,286047001.9,P
1678717415.7,286047002.3,N
1678717435.6,286046999.7,N
1678717455.4,286047002.8,N
1678717475.2,286047000.1,N
1678717495.1,286047000.1,N
1678717496.0,286047000.1,N
1678717515.8,286047000.5,N
1678717535.6,286047000.2,N
1678717555.5,286046999.7,N
1678717575.3,286047002.8,N
1678717595.1,286047002.6,N
1678717615.9,286047001.5,N
1678717635.7,286047001.4,N
1678717655.5,286047004.3,Y
1678717675.4,286047001.9,P
1678717695.2,286047002.5,P
1678717715.0,286047002.2,P
1678717715.9,286047002.2,Y
1678717735.8,286047001.2,P
1678717755.6,286046998.2,P
1678717775.4,286046998.6,N
1678717795.3,286047001.2,N
1678717815.1,286047001.1,N
1678717835.8,286046998.2,N
1678717855.7,286047000.4,N
1678717875.5,286047000.5,N
1678717895.3,286047000.6,N
1678717915.2,286047000.8,N
1678717935.9,286047000.6,N
1678717955.7,286046999.9,N
1678717975.6,286047000.5,N
1678717995.4,286047000.4,N
1678718015.2,286047000.5,N
1678718035.1,286047000.1,N
1678718036.0,286047000.1,N
1678718055.8,286047002.4,N
1678718075.6,286047001.6,N
1678718095.5,286047001.4,N
1678718115.3,286047001.4,N
1678718135.1,286047002.0,N
1678718155.9,286047002.1,N
1678718175.7,286047001.8,N
1678718195.5,286047002.2,N
1678718215.4,286047000.0,N
1678718235.2,286046999.8,N
1678718255.0,286047000.2,N
1678718255.9,286047000.2,N
1678718275.8,286046999.8,N
1678718295.6,286047002.4,N
1678718315.4,286047000.2,N
1678718335.3,286047000.4,N
1678718355.1,286047002.8,N
1678718356.0,286047002.8,N
1678718375.8,286047001.0,N
1678718395.7,286047000.6,N
1678718415.5,286046999.8,N
1678718435.3,286047000.4,N
1678718455.2,286047002.4,N
1678718475.9,286047001.8,N
1678718495.7,286047004.0,Y
1678718515.6,286047002.5,P
1678718535.4,286047001.6,N
1678718555.2,286047002.1,P
1678718575.1,286047002.7,Y
1678718576.0,286047002.7,P
1678718595.8,286046998.4,P
1678718615.6,286046998.5,N
1678718635.5,286047000.6,N
1678718655.3,286047000.0,N
1678718675.1,286046999.7,N
1678718695.9,286047002.5,N
1678718715.7,286047002.2,N
1678718735.5,286047002.4,N
1678718755.4,286047011.9,Y
1678718775.2,286047002.7,P
1678718795.0,286047002.1,N
1678718795.9,286047002.1,N
1678718815.8,286047002.7,Y
1678718835.6,286046998.5,P
1678718855.4,286046998.2,N
1678718875.3,286046998.2,N
1678718895.1,286046998.7,N
1678718915.8,286047000.7,N
1678718935.7,286047000.3,N
1678718955.5,286047002.8,N
1678718975.3,286047002.5,N
1678718995.2,286046999.9,N
1678719015.0,286046999.8,N
1678719015.9,286046999.8,N
1678719035.7,286047000.7,N
1678719055.6,286047001.2,N
1678719075.4,286046999.9,N
1678719095.2,286047001.0,N
1678719115.1,286047000.4,N
1678719116.0,286047000.4,N
1678719135.8,286047001.2,N
1678719155.6,286047001.0,N
1678719175.5,286046998.4,N
1678719195.3,286047001.2,N
1678719215.1,286046998.2,N
1678719235.9,286047002.1,N
1678719255.7,286047001.0,N
1678719275.5,286046998.7,N
1678719295.4,286046998.9,N
1678719315.2,286046998.5,N
1678719335.0,286046996.5,N
1678719335.9,286046996.5,N
1678719355.8,286046999.6,N
1678719375.6,286046999.0,N
1678719395.4,286046996.5,N
1678719415.3,286046994.9,Y
1678719435.1,286046996.2,P
1678719455.8,286046995.9,N
1678719475.7,286046993.4,P
1678719495.5,286046993.9,N
1678719515.3,286046996.4,N
1678719535.2,286046993.5,Y
1678719555.9,286047000.9,P
1678719575.7,286046999.7,N
1678719595.6,286047002.8,N
